Location: Unspecified
(0.0000°N, 0.0000°E)
Time: 02:39:33
(UTC+00:00)

Vanguard 2 - All Passes

Search period start: 25 July 2017 00:00
Search period end: 04 August 2017 00:00
Orbit: 555 x 2939 km, 32.9° (Epoch: 24 July)

Date Brightness Start Highest point End Pass type
(mag) Time Alt. Az. Time Alt. Az. Time Alt. Az.
25 Jul - 01:15:19 10° SW 01:24:12 16° SSW 01:32:07 10° SSE night (unlit)
25 Jul - 03:39:00 10° S 03:40:58 10° S 03:42:49 10° S visible
25 Jul - 05:48:30 10° SSW 05:54:41 19° SSE 05:59:16 10° ESE daylight
25 Jul - 07:58:11 10° SW 08:04:57 76° SSE 08:09:25 10° ENE daylight
25 Jul - 16:44:00 10° N 16:49:20 16° NE 16:56:03 10° ENE daylight
25 Jul - 18:49:09 10° NW 19:00:05 58° NE 19:16:30 10° ESE visible
25 Jul - 20:58:31 10° WNW 21:12:28 62° SSW 21:30:15 10° SE visible
25 Jul - 23:13:39 10° WSW 23:27:16 28° SSW 23:40:54 10° SSE visible
26 Jul - 01:37:10 10° SW 01:44:15 14° S 01:50:36 10° SSE visible
26 Jul - 03:56:00 10° SSW 04:00:43 13° S 04:04:45 10° SSE visible
26 Jul - 06:06:01 10° SSW 06:13:39 27° SSE 06:18:49 10° E daylight
26 Jul - 08:16:41 10° WSW 08:23:09 60° NW 08:27:31 10° NE daylight
26 Jul - 17:00:50 10° N 17:07:48 23° NE 17:17:29 10° E daylight
26 Jul - 19:07:06 10° NW 19:18:24 75° NE 19:35:32 10° ESE visible
26 Jul - 21:17:31 10° WNW 21:31:19 49° SSW 21:48:23 10° SE visible
26 Jul - 23:34:30 10° WSW 23:46:51 23° SSW 23:58:55 10° SSE visible
27 Jul - 01:58:15 10° SSW 02:04:25 13° S 02:09:55 10° SSE visible
27 Jul - 04:13:26 10° SSW 04:20:16 16° SSE 04:25:38 10° SE visible
27 Jul - 06:23:50 10° SW 06:32:25 41° SSE 06:37:49 10° E daylight
27 Jul - 08:35:40 10° WSW 08:41:12 32° NW 08:45:13 10° NNE daylight
27 Jul - 17:18:06 10° NNW 17:26:04 33° NE 17:37:59 10° E daylight
27 Jul - 19:25:18 10° NW 19:36:49 86° SW 19:54:15 10° SE visible
27 Jul - 21:36:54 10° W 21:50:21 39° SSW 22:06:27 10° SE visible
27 Jul - 23:55:48 10° SW 00:06:43 19° SSW 00:17:10 10° SSE visible
28 Jul - 02:18:02 10° SSW 02:24:32 13° S 02:30:13 10° SSE visible
28 Jul - 04:31:02 10° SSW 04:39:37 21° SSE 04:45:48 10° ESE visible
28 Jul - 06:41:56 10° SW 06:50:58 63° SSE 06:56:24 10° ENE daylight
28 Jul - 08:55:20 10° W 08:59:14 18° NW 09:02:23 10° N daylight
28 Jul - 17:35:39 10° NNW 17:44:14 45° NE 17:57:49 10° ESE daylight
28 Jul - 19:43:43 10° WNW 19:55:23 68° SSW 20:12:42 10° SE visible
28 Jul - 21:56:45 10° W 22:09:39 31° SSW 22:24:28 10° SSE visible
29 Jul - 00:17:15 10° SW 00:26:50 16° S 00:35:50 10° SSE night (unlit)
29 Jul - 02:36:45 10° SSW 02:44:32 15° S 02:51:00 10° SE visible
29 Jul - 04:48:46 10° SSW 04:58:46 29° SSE 05:05:24 10° E visible
29 Jul - 07:00:22 10° WSW 07:09:18 82° NW 07:14:39 10° NE daylight
29 Jul - 15:49:04 10° N 15:52:52 14° NE 15:57:29 10° ENE daylight
29 Jul - 17:53:26 10° NW 18:02:24 62° NE 18:17:09 10° ESE daylight
29 Jul - 20:02:28 10° WNW 20:14:09 53° SSW 20:30:56 10° SE visible
29 Jul - 22:17:04 10° WSW 22:29:11 25° SSW 22:42:34 10° SSE visible
30 Jul - 00:38:21 10° SW 00:47:07 15° S 00:55:11 10° SSE night (unlit)
30 Jul - 02:54:58 10° SSW 03:04:18 18° SSE 03:11:37 10° SE visible
30 Jul - 05:06:41 10° SW 05:17:42 40° SSE 05:24:31 10° E visible
30 Jul - 07:19:09 10° WSW 07:27:25 51° NW 07:32:34 10° NE daylight
30 Jul - 16:05:34 10° N 16:11:07 22° NE 16:18:52 10° E daylight
30 Jul - 18:11:26 10° NW 18:20:40 83° NE 18:36:04 10° ESE visible
30 Jul - 20:21:32 10° W 20:33:08 42° SSW 20:49:04 10° SE visible
30 Jul - 22:37:52 10° WSW 22:49:01 21° SSW 23:00:52 10° SSE visible
31 Jul - 00:58:35 10° SSW 01:07:24 15° S 01:15:19 10° SSE visible
31 Jul - 03:12:57 10° SSW 03:23:51 23° SSE 03:31:50 10° ESE visible
31 Jul - 05:24:48 10° SW 05:36:25 57° SSE 05:43:15 10° ENE visible
31 Jul - 07:38:26 10° W 07:45:26 31° NW 07:50:10 10° NNE daylight
31 Jul - 16:22:46 10° NNW 16:29:14 32° NE 16:39:09 10° E daylight
31 Jul - 18:29:41 10° WNW 18:39:06 76° SW 18:54:39 10° SE visible
31 Jul - 20:41:01 10° W 20:52:20 33° SSW 21:07:08 10° SSE visible
31 Jul - 22:58:56 10° SW 23:09:06 18° S 23:19:33 10° SSE visible
01 Aug - 01:17:53 10° SSW 01:27:35 17° S 01:36:00 10° SE visible
01 Aug - 03:30:54 10° SSW 03:43:09 30° SSE 03:51:34 10° E visible
01 Aug - 05:43:09 10° SW 05:54:54 82° SE 06:01:38 10° ENE visible
01 Aug - 07:58:24 10° W 08:03:26 19° NW 08:07:15 10° N daylight
01 Aug - 16:40:18 10° NNW 16:47:17 47° NE 16:58:46 10° ESE daylight
01 Aug - 18:48:13 10° WNW 18:57:43 58° SSW 19:13:00 10° SE visible
01 Aug - 21:00:58 10° WSW 21:11:46 26° SSW 21:25:14 10° SSE visible
01 Aug - 23:19:54 10° SW 23:29:23 16° S 23:38:52 10° SSE visible
02 Aug - 01:36:31 10° SSW 01:47:34 20° SSE 01:56:43 10° SE visible
02 Aug - 03:48:54 10° SW 04:02:15 40° SSE 04:10:51 10° E visible
02 Aug - 06:01:50 10° WSW 06:13:10 70° NW 06:19:44 10° NE daylight
02 Aug - 08:20:19 10° NW 08:21:33 10° NW 08:22:43 10° NNW daylight
02 Aug - 14:54:25 10° NNE 14:56:44 12° NE 14:59:23 10° ENE daylight
02 Aug - 16:58:08 10° NW 17:05:23 68° NE 17:17:53 10° ESE daylight
02 Aug - 19:07:03 10° W 19:16:34 44° SSW 19:31:10 10° SE visible
02 Aug - 21:21:22 10° WSW 21:31:29 21° SSW 21:43:28 10° SSE visible
02 Aug - 23:40:16 10° SSW 23:49:45 16° S 23:58:58 10° SE night (unlit)
03 Aug - 01:54:47 10° SSW 02:07:18 24° SSE 02:17:07 10° ESE visible
03 Aug - 04:07:01 10° SW 04:21:07 53° SSE 04:29:45 10° ENE visible
03 Aug - 06:20:53 10° WSW 06:31:15 47° NW 06:37:34 10° NNE daylight
03 Aug - 15:10:30 10° N 15:14:52 20° NE 15:20:47 10° E daylight
03 Aug - 17:16:12 10° WNW 17:23:39 86° SW 17:36:37 10° SE daylight
03 Aug - 19:26:17 10° W 19:35:39 34° SSW 19:49:14 10° SE visible
03 Aug - 21:42:06 10° SW 21:51:27 18° S 22:02:02 10° SSE visible
